Available Load Listing

Click here to view advanced filters and to manage your preferences
Use the boxes above the column to filter results. Click a column heading to sort by that column.
Load# Call Available Origin City State Destination City State Dlv Dt Equip
LID3796617-3 910-297-0147 2019-10-02 MCCOMB MS LAREDO TX 2019-10-04 RT
LID3796617-1 910-297-0147 2019-10-07 MCCOMB MS LAREDO TX 2019-10-09 RT
LID3887459 844-797-8188 2019-10-12 LAREDO TX ESTADO DE MEXICO ME 2019-10-12 V
LID3887411 844-797-8188 2019-10-12 LAREDO TX ESTADO DE MEXICO ME 2019-10-12 V
LID3884072 937-827-0198 2019-10-14 Dallas TX BLUFFTON IN 2019-10-16 V
LID3889135 360-588-4889 2019-10-16 MADILL OK HOUSTON TX 2019-10-17 FD
LID3889130 360-588-4889 2019-10-16 MADILL OK CONROE TX 2019-10-17 FD
LID3891892 855-211-4702 2019-10-16 Perrysburg OH Goldsmith TX 2019-10-23
LID3889568 360-588-4889 2019-10-16 POLLOK TX AUBURN MA 2019-10-18 F
LID3894479 855-211-4702 2019-10-16 LAREDO TX San Diego CA 2019-10-16 V
LID3891939 360-588-4889 2019-10-16 MADILL OK GRAHAM TX 2019-10-17 F
LID3894348 360-588-4889 2019-10-17 MADILL OK BULVERDE TX 2019-10-18 FD
LID3894599 469-644-6227 2019-10-17 HUMBLE TX HUMBLE TX 2019-10-17 PWR
LID3892692 469-644-6227 2019-10-17 GRAPEVINE TX MANSFIELD TX 2019-10-17 PWR
LID3893231 727-781-7896 2019-10-17 HOUSTON TX FORT WORTH TX 2019-10-18 RT
LID3861417 844-797-8188 2019-10-17 Missouri City TX JONESVILLE LA 2019-10-18 V
LID3893409 830-629-4600 2019-10-17 Dallas TX YUKON OK 2019-10-18 F
LID3893670 830-629-4600 2019-10-17 Gainesville TPO TX HOUSTON TX 2019-10-18 F
LID3894409 855-894-3658 2019-10-17 ENID OK Austin TX 2019-10-18 VR
LID3893536 844-797-8190 2019-10-17 Pharr TX MOUNT VERNON NY 2019-10-21 V
LID3894512 855-494-2049 2019-10-17 Von Ormy TX Fort Worth TX 2019-10-18 FD
LID3891242 855-211-4702 2019-10-17 LAREDO TX SAN DIEGO CA 2019-10-21 V
LID3889687 479-725-4424 2019-10-17 HOUSTON TX IRWINDALE CA 2019-10-24 CO
LID3893410 830-629-4600 2019-10-17 Dallas TX YUKON OK 2019-10-18 F
LID3894177 360-588-4889 2019-10-17 MADILL OK CLEVELAND TX 2019-10-18 FD
LID3894355 360-588-4889 2019-10-17 MADILL OK SAN ANGELO TX 2019-10-18 FD
LID3880393 866-637-8600 2019-10-17 HEREFORD TX MIRA LOMA CA 2019-10-19 V
LID3884894 844-619-9572 2019-10-17 FREEPORT IL DENTON TX 2019-10-19 V
LID3893984 855-494-2049 2019-10-17 HOUSTON TX WOODVILLE TX 2019-10-17 F
LID3894225 636-591-9021 2019-10-17 FT WORTH TX OKLAHOMA CITY OK 2019-10-18 V
LID3894600 469-644-6227 2019-10-17 HUMBLE TX LEAGUE CITY TX 2019-10-17 PWR
LID3894347 307-630-7959 2019-10-17 Cartersville GA HOUSTON TX 2019-10-18 V
LID3892688 469-644-6227 2019-10-17 HUMBLE TX GRAPEVINE TX 2019-10-17 PWR
LID3894363 360-588-4889 2019-10-17 MADILL OK LAMESA TX 2019-10-18 FD
LID3889091 844-797-8189 2019-10-18 BELOIT WI LAREDO TX 2019-10-21 V
LID3881982 830-629-4600 2019-10-18 CORSICANA TX Conroe TX 2019-10-21 FD
LID3892928 830-629-4600 2019-10-18 Ennis TX HOUSTON TX 2019-10-18 F
LID3881984 830-629-4600 2019-10-18 CORSICANA TX Conroe TX 2019-10-21 FD
LID3892906 830-629-4600 2019-10-18 Ennis TX KATY TX 2019-10-18 F
LID3893579 972-475-4286 2019-10-18 CHICKASHA OK CORPUS CHRISTI TX 2019-10-21 F
LID3892277 847-463-5128 2019-10-18 DENTON TX Saline MI 2019-10-21 V
LID3815498 830-629-4600 2019-10-18 CORSICANA TX San Antonio TX 2019-10-21 FD
LID3886771 844-797-8188 2019-10-18 HOUSTON TX SAN ANTONIO TX 2019-10-18 VR
LID3878569 830-629-4600 2019-10-18 Gainesville TPO TX SAN MARCOS TX 2019-10-21 F
LID3881988 830-629-4600 2019-10-18 CORSICANA TX Conroe TX 2019-10-21 FD
LID3815495 830-629-4600 2019-10-18 CORSICANA TX San Antonio TX 2019-10-21 FD
LID3894601 469-644-6227 2019-10-18 HUMBLE TX LEAGUE CITY TX 2019-10-18 PWR
LID3890405 855-494-2049 2019-10-18 Houston TX Baytown TX 2019-10-18 FD
LID3892924 830-629-4600 2019-10-18 Ennis TX STAFFORD TX 2019-10-18 F
LID3886166 866-637-8600 2019-10-18 HEREFORD TX MIRA LOMA CA 2019-10-21 V
LID3858910 847-463-5128 2019-10-18 Parsons TN San Antonio TX 2019-10-21 V
LID3893906 844-619-9572 2019-10-18 ALBANY MO LAREDO TX 2019-10-21 F
LID3878562 830-629-4600 2019-10-18 Gainesville TPO TX SAN MARCOS TX 2019-10-21 F
LID3889665 479-725-4424 2019-10-18 HOUSTON TX IRWINDALE CA 2019-10-25 CO
LID3884244 844-797-8189 2019-10-18 Fort Collins CO La Porte TX 2019-10-21 V
LID3883730 479-203-5850 2019-10-18 Hot Springs AR Longview TX 2019-10-19 V
LID3889823 866-637-8600 2019-10-18 HEREFORD TX MIRA LOMA CA 2019-10-21 V
LID3889339 847-463-5128 2019-10-18 GRAND SALINE TX BALTIMORE MD 2019-10-21 VR
LID3886924 844-797-8190 2019-10-18 SEALY TX West Palm Beach FL 2019-10-22 RT
LID3889094 844-797-8189 2019-10-18 BELOIT WI HOUSTON TX 2019-10-21 V
LID3815501 830-629-4600 2019-10-18 CORSICANA TX San Antonio TX 2019-10-21 FD
LID3878568 830-629-4600 2019-10-18 Gainesville TPO TX SAN MARCOS TX 2019-10-21 F
LID3892905 830-629-4600 2019-10-18 Ennis TX KATY TX 2019-10-18 F
LID3876439 866-637-8600 2019-10-18 HEREFORD TX PORTLAND OR 2019-10-21 V
LID3885167 830-629-4600 2019-10-18 CORSICANA TX Houston TX 2019-10-21 FD
LID3894009 925-292-1059 2019-10-18 TORRANCE CA DALLAS TX 2019-10-21
LID3889095 844-797-8189 2019-10-18 BELOIT WI TEMPLE TX 2019-10-21 V
LID3893471 830-629-4600 2019-10-18 Hickman AR LONGVIEW TX 2019-11-16 FD
LID3815496 830-629-4600 2019-10-18 CORSICANA TX San Antonio TX 2019-10-21 FD
LID3885171 830-629-4600 2019-10-18 CORSICANA TX Houston TX 2019-10-21 FD
LID3878567 830-629-4600 2019-10-18 Gainesville TPO TX SAN MARCOS TX 2019-10-21 F
LID3888636 844-797-8188 2019-10-19 HOUSTON TX SAN ANTONIO TX 2019-10-20 VR
LID3884248 844-797-8189 2019-10-19 Fort Collins CO La Porte TX 2019-10-22 V
LID3888773 844-797-8188 2019-10-19 MISSOURI CITY TX DENHAM SPRINGS LA 2019-10-20 VR
LID3888775 844-797-8188 2019-10-19 MISSOURI CITY TX HOUMA LA 2019-10-20 VR
LID3888777 844-797-8188 2019-10-19 MISSOURI CITY TX BATON ROUGE LA 2019-10-20 VR
LID3889921 844-797-8188 2019-10-19 HOUSTON TX KANSAS CITY KS 2019-10-21 VR
LID3894101 844-373-5795 2019-10-19 FORT WORTH TX LENEXA KS 2019-10-21 V
LID3884249 844-797-8189 2019-10-19 Fort Collins CO La Porte TX 2019-10-22 V
LID3879083 844-797-8188 2019-10-20 Seguin TX Longview TX 2019-10-21 V
LID3894598 469-644-6227 2019-10-20 GRAPEVINE TX GRAPEVINE TX 2019-10-20 PWR
LID3888772 844-797-8188 2019-10-20 MISSOURI CITY TX HOUMA LA 2019-10-21 VR
LID3884252 844-797-8189 2019-10-20 Fort Collins CO La Porte TX 2019-10-23 V
LID3882424 844-797-8188 2019-10-20 Missouri City TX CHURCH POINT LA 2019-10-21 V
LID3894556 844-797-8188 2019-10-20 SEGUIN TX LONGVIEW TX 2019-10-21 VR
LID3873144 844-797-8188 2019-10-20 Missouri City TX Harahan LA 2019-10-21 V
LID3862907 844-797-8188 2019-10-20 Missouri City TX NATCHITOCHES LA 2019-10-21 V
LID3893268 844-214-4192 2019-10-21 NORTH BERGEN NJ DALLAS TX 2019-10-24 RT
LID3893276 844-214-4192 2019-10-21 NORTH BERGEN NJ CARROLLTON TX 2019-10-24 RT
LID3893280 844-214-4192 2019-10-21 NORTH BERGEN NJ DALLAS TX 2019-10-24 RT
LID3890724 844-797-8188 2019-10-21 MISSOURI CITY TX BATON ROUGE LA 2019-10-22 VR
LID3889866 830-629-4600 2019-10-21 Corsicana TX Houston TX 2019-10-22 FD
LID3893277 844-214-4192 2019-10-21 NORTH BERGEN NJ CARROLLTON TX 2019-10-24 RT
LID3894535 888-215-6538 2019-10-21 EAGLE PASS TX ALLIANCE NE 2019-10-23 F
LID3888639 844-797-8188 2019-10-21 HOUSTON TX SAN ANTONIO TX 2019-10-22 VR
LID3583279 800-500-4915 2019-10-21 Columbus OH Hutchins TX 2019-10-23 V
LID3891508 830-629-4600 2019-10-21 CORSICANA TX Houston TX 2019-10-21 FD
LID3891504 830-629-4600 2019-10-21 CORSICANA TX Houston TX 2019-10-21 FD
LID3893279 844-214-4192 2019-10-21 NORTH BERGEN NJ EULESS TX 2019-10-24 RT
LID3891215 844-797-8190 2019-10-21 Waukesha WI SEALY TX 2019-10-24 RT
LID3889870 830-629-4600 2019-10-21 Corsicana TX Houston TX 2019-10-22 FD
LID3871063 830-629-4600 2019-10-21 CORSICANA TX Houston TX 2019-10-22 FD
LID3583270 800-500-4915 2019-10-21 Altavista VA Hutchins TX 2019-10-23 V
LID3871056 830-629-4600 2019-10-21 CORSICANA TX Houston TX 2019-10-22 FD
LID3889847 937-827-0196 2019-10-21 Boron CA Laredo TX 2019-10-23 V
LID3891534 830-629-4600 2019-10-21 CORSICANA TX Houston TX 2019-10-22 FD
LID3893282 844-214-4192 2019-10-21 NORTH BERGEN NJ FORT WORTH TX 2019-10-24 RT
LID3890138 844-797-8188 2019-10-21 Fort Worth TX SAN ANTONIO TX 2019-10-21 RT
LID3891507 830-629-4600 2019-10-21 CORSICANA TX Houston TX 2019-10-21 FD
LID3891506 830-629-4600 2019-10-21 CORSICANA TX Houston TX 2019-10-21 FD
LID3878940 636-591-9021 2019-10-21 PEORIA IL HOUSTON TX 2019-10-23 V
LID3891510 830-629-4600 2019-10-21 CORSICANA TX Houston TX 2019-10-21 FD
LID3871058 830-629-4600 2019-10-21 CORSICANA TX Houston TX 2019-10-22 FD
LID3892972 855-494-2049 2019-10-21 KATY TX COOKEVILLE TN 2019-10-16 V
LID3889777 844-797-8188 2019-10-21 Houston TX Edgerton KS 2019-10-22 V
LID3894214 937-827-0198 2019-10-21 Dallas TX BLUFFTON IN 2019-10-23 V
LID3891535 830-629-4600 2019-10-21 CORSICANA TX Houston TX 2019-10-22 FD
LID3891521 830-629-4600 2019-10-21 CORSICANA TX Houston TX 2019-10-22 FD
LID3893267 844-214-4192 2019-10-21 NORTH BERGEN NJ CARROLLTON TX 2019-10-24 RT
LID3893271 844-214-4192 2019-10-21 NORTH BERGEN NJ CARROLLTON TX 2019-10-24 RT
LID3880243 847-463-5128 2019-10-21 SOUTH HUTCHINSON KS DALLAS TX 2019-10-22 VR
LID3893190 855-494-2048 2019-10-21 ENNIS TX Tulsa OK 2019-10-22 F
LID3583278 800-500-4915 2019-10-21 Columbus OH Hutchins TX 2019-10-23 V
LID3893275 844-214-4192 2019-10-21 NORTH BERGEN NJ ARLINGTON TX 2019-10-24 RT
LID3891515 830-629-4600 2019-10-21 CORSICANA TX Houston TX 2019-10-22 FD
LID3891511 830-629-4600 2019-10-21 CORSICANA TX Houston TX 2019-10-22 FD
LID3894220 844-797-8188 2019-10-21 Cleveland OH Dallas TX 2019-10-23 V
LID3889242 844-797-8188 2019-10-21 MISSOURI CITY TX SAN ANTONIO TX 2019-10-22 VR
LID3893278 844-214-4192 2019-10-21 NORTH BERGEN NJ LEWISVILLE TX 2019-10-24 RT
LID3892919 830-629-4600 2019-10-22 CORSICANA TX Houston TX 2019-10-22 FD
LID3894294 830-629-4600 2019-10-22 CORSICANA TX Webster TX 2019-10-23 FD
LID3888637 844-797-8188 2019-10-22 MISSOURI CITY TX SAN ANTONIO TX 2019-10-23 VR
LID3892148 830-629-4600 2019-10-22 ENNIS TX DALLAS TX 2019-10-22 F
LID3894295 830-629-4600 2019-10-22 CORSICANA TX Webster TX 2019-10-23 FD
LID3892702 844-797-8188 2019-10-22 MISSOURI CITY TX HOUMA LA 2019-10-23 VR
LID3892932 830-629-4600 2019-10-22 CORSICANA TX Houston TX 2019-10-22 FD
LID3892848 830-629-4600 2019-10-22 Corsicana TX Houston TX 2019-10-23 FD
LID3894309 830-629-4600 2019-10-22 CORSICANA TX Webster TX 2019-10-23 FD
LID3883584 844-619-9572 2019-10-22 Carrollton TX MINNEAPOLIS MN 2019-10-22 V
LID3892851 830-629-4600 2019-10-22 Corsicana TX Houston TX 2019-10-23 FD
LID3893545 866-637-8600 2019-10-22 HEREFORD TX MIRA LOMA CA 2019-10-24 V
LID3868088 844-797-8188 2019-10-22 Roanoke TX HOUSTON TX 2019-10-22 V
LID3890733 844-814-7073 2019-10-22 FORT WORTH TX MENOMONIE WI 2019-10-24 V
LID3483922 800-500-4915 2019-10-22 Altavista VA Hutchins TX 2019-10-24 V
LID3889244 844-797-8188 2019-10-22 MISSOURI CITY TX SAN ANTONIO TX 2019-10-23 VR
LID3892916 830-629-4600 2019-10-22 CORSICANA TX Houston TX 2019-10-22 FD
LID3892921 830-629-4600 2019-10-22 CORSICANA TX Houston TX 2019-10-22 FD
LID3894290 830-629-4600 2019-10-22 CORSICANA TX Webster TX 2019-10-23 FD
LID3893198 855-494-2048 2019-10-22 ENNIS TX Tulsa OK 2019-10-23 F
LID3894302 830-629-4600 2019-10-22 CORSICANA TX Webster TX 2019-10-23 FD
LID3891817 844-619-9572 2019-10-22 LUDINGTON MI DENTON TX 2019-10-24 V
LID3890709 844-797-8188 2019-10-22 HOUSTON TX WESLACO TX 2019-10-22 VR
LID3894206 844-797-8188 2019-10-22 Fort Worth TX SAN ANTONIO TX 2019-10-23 RT
LID3892138 830-629-4600 2019-10-22 DALLAS TX DALLAS TX 2019-10-22 F
LID3892930 830-629-4600 2019-10-22 CORSICANA TX Houston TX 2019-10-22 FD
LID3894310 830-629-4600 2019-10-22 DALLAS TX Webster TX 2019-10-23 F
LID3893592 727-209-3967 2019-10-22 ALBANY KY DALLAS TX 2019-10-24 RT
LID3894305 830-629-4600 2019-10-22 CORSICANA TX Webster TX 2019-10-23 FD
LID3892847 830-629-4600 2019-10-22 Corsicana TX Houston TX 2019-10-23 FD
LID3885708 830-629-4600 2019-10-23 CORSICANA TX Deer Park TX 2019-10-24 FD
LID3894566 844-797-8188 2019-10-23 MISSOURI CITY TX BATON ROUGE LA 2019-10-24 VR
LID3890293 844-619-9572 2019-10-23 SEARCY AR DENTON TX 2019-10-24 V
LID3885172 830-629-4600 2019-10-23 CORSICANA TX Houston TX 2019-10-24 FD
LID3889243 844-797-8188 2019-10-23 MISSOURI CITY TX SAN ANTONIO TX 2019-10-24 VR
LID3881014 830-629-4600 2019-10-23 CORSICANA TX Anna TX 2019-10-23 FD
LID3889240 844-797-8188 2019-10-23 MISSOURI CITY TX SAN ANTONIO TX 2019-10-24 VR
LID3894568 844-797-8188 2019-10-23 DALLAS TX LUBBOCK TX 2019-10-24 VR
LID3890670 937-827-0198 2019-10-23 Dallas TX HOPE MILLS NC 2019-10-25 V
LID3893783 830-629-4600 2019-10-23 San Antonio TX Wimberley TX 2019-10-23 FD
LID3890708 844-797-8188 2019-10-23 HOUSTON TX WESLACO TX 2019-10-23 VR
LID3890704 844-797-8188 2019-10-23 MISSOURI CITY TX WESLACO TX 2019-10-23 VR
LID3892931 855-235-1419 2019-10-23 AURORA IL Victoria TX 2019-10-25 V
LID3881468 479-203-5639 2019-10-23 Joplin MO Laredo TX 2019-10-24 V
LID3889805 844-797-8188 2019-10-23 FORT WORTH TX HOUSTON TX 2019-10-23 RT
LID3893781 830-629-4600 2019-10-23 San Antonio TX Wimberley TX 2019-10-23 FD
LID3885178 830-629-4600 2019-10-23 CORSICANA TX Houston TX 2019-10-24 FD
LID3892381 844-797-8188 2019-10-23 DALLAS TX TOPEKA KS 2019-10-24 VR
LID3885711 830-629-4600 2019-10-23 CORSICANA TX Deer Park TX 2019-10-24 FD
LID3892599 479-203-5850 2019-10-23 Hot Springs AR Tyler TX 2019-10-24 V
LID3891238 844-797-8188 2019-10-23 HOUSTON TX SAN ANTONIO TX 2019-10-24 VR
LID3894281 844-797-8188 2019-10-23 Fort Worth TX SAN ANTONIO TX 2019-10-24 RT
LID3885709 830-629-4600 2019-10-23 CORSICANA TX Deer Park TX 2019-10-24 FD
LID3885176 830-629-4600 2019-10-23 CORSICANA TX Houston TX 2019-10-24 FD
LID3880408 847-463-5128 2019-10-23 Parsons TN Austin TX 2019-10-25 V
LID3891219 844-797-8190 2019-10-23 Waukesha WI SEALY TX 2019-10-25 RT
LID3878939 636-591-9021 2019-10-23 PEORIA IL HOUSTON TX 2019-10-25 V
LID3888638 844-797-8188 2019-10-24 HOUSTON TX SAN ANTONIO TX 2019-10-25 VR
LID3889966 844-797-8188 2019-10-24 HOUSTON TX HARVEY LA 2019-10-25 VR
LID3892382 844-797-8188 2019-10-24 MISSOURI CITY TX PORT ALLEN LA 2019-10-25 VR
LID3871066 830-629-4600 2019-10-24 CORSICANA TX Houston TX 2019-10-25 FD
LID3893797 830-629-4600 2019-10-24 San Antonio TX Wimberley TX 2019-10-24 FD
LID3871068 830-629-4600 2019-10-24 CORSICANA TX Houston TX 2019-10-25 FD
LID3893786 830-629-4600 2019-10-24 San Antonio TX Wimberley TX 2019-10-24 FD
LID3892632 937-827-0198 2019-10-24 Dallas TX SPRING VALLEY IL 2019-10-25 V
LID3894564 844-797-8188 2019-10-24 MISSOURI CITY TX HARAHAN LA 2019-10-25 VR
LID3893828 844-797-8188 2019-10-24 HOUSTON TX MARRERO LA 2019-10-25 VR
LID3894558 844-797-8188 2019-10-25 HOUSTON TX WESLACO TX 2019-10-25 VR
LID3890734 844-814-7073 2019-10-25 FORT WORTH TX MENOMONIE WI 2019-10-27 V
LID3894293 844-797-8188 2019-10-25 FORT WORTH TX HOUSTON TX 2019-10-26 RT
LID3885724 830-629-4600 2019-10-25 CORSICANA TX Deer Park TX 2019-10-28 FD
LID3890808 937-827-0196 2019-10-25 BORON CA Laredo TX 2019-10-28 V
LID3890707 844-797-8188 2019-10-25 MISSOURI CITY TX WESLACO TX 2019-10-25 VR
LID3881471 479-203-5639 2019-10-25 Joplin MO Laredo TX 2019-10-28 V
LID3885728 830-629-4600 2019-10-25 CORSICANA TX Deer Park TX 2019-10-28 FD
LID3885730 830-629-4600 2019-10-25 CORSICANA TX Deer Park TX 2019-10-28 FD
LID3885723 830-629-4600 2019-10-25 CORSICANA TX Deer Park TX 2019-10-28 FD
LID3884148 844-797-8188 2019-10-25 MISSOURI CITY TX PORT ALLEN LA 2019-10-25 VR
LID3894292 844-797-8188 2019-10-25 FORT WORTH TX HOUSTON TX 2019-10-26 RT
LID3889241 844-797-8188 2019-10-25 MISSOURI CITY TX SAN ANTONIO TX 2019-10-25 VR
LID3890706 844-797-8188 2019-10-26 MISSOURI CITY TX WESLACO TX 2019-10-26 VR
LID3894565 844-797-8188 2019-10-27 MISSOURI CITY TX HARAHAN LA 2019-10-28 VR
LID3881112 844-797-8188 2019-10-27 Seguin TX Longview TX 2019-10-28 V
LID3892383 844-797-8188 2019-10-27 MISSOURI CITY TX CHURCH POINT LA 2019-10-28 VR
LID3894557 844-797-8188 2019-10-27 SEGUIN TX LONGVIEW TX 2019-10-28 VR
LID3878938 636-591-9021 2019-10-28 PEORIA IL HOUSTON TX 2019-10-30 V
LID3888078 844-797-8188 2019-10-28 OMAHA NE DALLAS TX 2019-10-29 V
LID3887900 479-203-5639 2019-10-28 LOUISVILLE KY Ganado TX 2019-10-31 V
LID3890311 855-494-2049 2019-10-28 Baytown TX POCASSET OK 2019-10-29 FD
LID3888315 479-203-5639 2019-10-28 LOUISVILLE KY Ganado TX 2019-10-31 V
LID3881989 844-797-8188 2019-10-29 JOPLIN MO DALLAS TX 2019-10-30 V
LID3887662 636-591-9021 2019-10-30 PEORIA IL HOUSTON TX 2019-11-01 V
LID3892155 830-629-4600 2019-11-01 DALLAS TX DALLAS TX 2019-11-01 F
LID3892150 830-629-4600 2019-11-01 DALLAS TX DALLAS TX 2019-11-01 F
LID3892151 830-629-4600 2019-11-01 DALLAS TX DALLAS TX 2019-11-01 F
LID3892153 830-629-4600 2019-11-01 DALLAS TX DALLAS TX 2019-11-01 F
LID3892159 830-629-4600 2019-11-01 DALLAS TX DALLAS TX 2019-11-01 F
LID3892154 830-629-4600 2019-11-01 DALLAS TX DALLAS TX 2019-11-01 F
LID3892158 830-629-4600 2019-11-01 DALLAS TX DALLAS TX 2019-11-01 F
LID3892149 830-629-4600 2019-11-01 DALLAS TX DALLAS TX 2019-11-01 F
LID3886373 830-629-4600 2019-11-01 DALLAS TX DALLAS TX 2019-11-01 F
LID3892156 830-629-4600 2019-11-01 DALLAS TX DALLAS TX 2019-11-01 F
LID3873713 937-827-0197 2019-11-04 MISSOURI CITY TX COLUMBUS OH 2019-11-06 V
LID3739893 830-629-4600 2019-11-07 Ennis TX DALLAS TX 2019-11-07 F
LID3867692 855-494-2048 2019-11-11 ARLINGTON TX Sarasota FL 2020-11-13 V
LID3879815 855-494-2048 2019-11-11 ENNIS TX Memphis TN 2020-11-12 F
LID3879812 855-494-2048 2019-11-11 ENNIS TX Memphis TN 2020-11-12 F
LID3881539 937-827-0197 2019-11-11 MISSOURI CITY TX COLUMBUS OH 2019-11-13 V
LID3892413 844-797-8188 2019-11-12 HOUSTON TX SPRINGDALE AR 2019-11-13 VR
LID3892415 844-797-8188 2019-11-12 HOUSTON TX SPRINGDALE AR 2019-11-13 VR
LID3833994 830-629-4600 2019-11-18 Ennis TX DALLAS TX 2019-11-18 F
LID3865909 855-494-2049 2019-12-02 HOUSTON TX Alta IA 2019-12-05 SPE1
LID3865906 855-494-2049 2019-12-02 HOUSTON TX Alta IA 2019-12-05 SPE1
LID3836423 855-494-2049 2019-12-02 HOUSTON TX Alta IA 2019-12-05 SPE1
LID3865904 855-494-2049 2019-12-02 HOUSTON TX Alta IA 2019-12-02 SPE1
LID3854953 855-494-2048 2019-12-31 MOUNTAIN LAKE MN STERLING CITY TX 2019-12-31 SD